Location: Équennes
(49.7375°N, 1.9622°E)
Time: 23:11:58
(UTC+00:00)

Cosmos 2082 - Pass Details

Date: 28 January 2023
Orbit: 834 x 854 km, 71.0° (Epoch: 29 March)

Event Time Altitude Azimuth Distance (km) Brightness Sun altitude
Rises 17:13:30 0° 332° (NNW) 3,398 6.9 -5.8°
Reaches altitude 10° 17:15:59 10° 336° (NNW) 2,459 6.2 -6.1°
Maximum altitude 17:21:35 63° 57° (ENE) 929 3.7 -7.0°
Drops below altitude 10° 17:27:08 10° 139° (SE) 2,442 5.9 -7.8°
Sets 17:29:35 0° 143° (SE) 3,373 6.6 -8.2°
